Mount Ida, AR

7:56 AM CDT on April 29, 2017 (GMT -0500)
Mount Ida

Weather History for KMWT - July, 2013

Change the Weather History Date:

Thursday, July 11, 2013

  Actual Average (KHOT) Record (KHOT)
Temperature  
Mean Temperature 83 °F -  
Max Temperature 98 °F 95 °F 107 °F (1954)
Min Temperature 69 °F 71 °F 60 °F (1961)
Cooling Degree Days 18    
Growing Degree Days 33 (Base 50)    
Moisture  
Dew Point 70 °F    
Average Humidity 72    
Maximum Humidity 97    
Minimum Humidity 40    
Precipitation  
Precipitation 0.00 in - - ()
Sea Level Pressure  
Sea Level Pressure 29.92 in    
Wind  
Wind Speed 1 mph (SE)    
Max Wind Speed 7 mph    
Max Gust Speed -    
Visibility 10 miles    
Events      
Averages and records for this station are not official NWS values.
T = Trace of Precipitation, MM = Missing Value Source: NWS Daily Summary

Daily Weather History Graph

Daily Weather History Graph

Search for Another Location

Airport or City:

Trip Planner

Search our weather history database for the weather conditions in past years. The results will help you decide how hot, cold, wet, or windy it might be!

Date:

Astronomy

Jul. 11, 2013 Rise Set
Actual Time 6:10 AM CDT 8:28 PM CDT
Civil Twilight 5:41 AM CDT 8:57 PM CDT
Nautical Twilight 5:06 AM CDT 9:33 PM CDT
Astronomical Twilight 4:27 AM CDT 10:11 PM CDT
Moon 9:19 AM CDT (7/11) 10:21 PM CDT (7/11)
Length of Visible Light 15h 16m
Length of Day
14h 18m
Waxing Crescent, 11% of the Moon is Illuminated
Jul 11
Waxing Crescent
Jul 15
First Quarter
Jul 22
Full
Jul 29
Last Quarter
Aug 6
New

Hourly Weather History & Observations

Time (CDT) Temp. Heat Index Dew Point Humidity Pressure Visibility Wind Dir Wind Speed Gust Speed Precip Events Conditions
12:53 AM 71.1 °F - 70.0 °F 96% 29.94 in 10.0 mi WSW 3.5 mph - N/A   Clear
1:53 AM 71.1 °F - 69.1 °F 93% 29.93 in 10.0 mi Calm Calm - N/A   Clear
2:53 AM 70.0 °F - 69.1 °F 97% 29.93 in 10.0 mi Calm Calm - N/A   Clear
3:53 AM 70.0 °F - 68.0 °F 93% 29.94 in 10.0 mi Calm Calm - N/A   Clear
4:53 AM 69.1 °F - 68.0 °F 96% 29.93 in 7.0 mi Calm Calm - N/A   Clear
5:53 AM 69.1 °F - 68.0 °F 96% 29.94 in 6.0 mi Calm Calm - N/A   Scattered Clouds
6:53 AM 69.1 °F - 68.0 °F 96% 29.94 in 5.0 mi Calm Calm - N/A   Partly Cloudy
7:53 AM 77.0 °F - 72.0 °F 84% 29.94 in 10.0 mi Calm Calm - N/A   Clear
8:53 AM 79.0 °F - 72.0 °F 79% 29.94 in 10.0 mi Calm Calm - N/A   Clear
9:53 AM 82.0 °F 86.7 °F 72.0 °F 71% 29.95 in 10.0 mi Calm Calm - N/A   Clear
10:53 AM 86.0 °F 92.2 °F 72.0 °F 63% 29.94 in 10.0 mi Variable 3.5 mph - N/A   Clear
11:53 AM 90.0 °F 97.9 °F 73.0 °F 57% 29.94 in 10.0 mi Calm Calm - N/A   Clear
12:53 PM 93.9 °F 100.8 °F 71.1 °F 47% 29.93 in 10.0 mi Variable 3.5 mph - N/A   Clear
1:53 PM 95.0 °F 101.3 °F 70.0 °F 44% 29.92 in 10.0 mi Calm Calm - N/A   Clear
2:53 PM 97.0 °F 102.8 °F 69.1 °F 40% 29.90 in 10.0 mi Variable 3.5 mph - N/A   Clear
3:53 PM 96.1 °F 104.9 °F 72.0 °F 46% 29.87 in 10.0 mi Variable 5.8 mph - N/A   Mostly Cloudy
4:53 PM 97.0 °F 103.5 °F 70.0 °F 41% 29.87 in 10.0 mi ESE 4.6 mph - N/A   Clear
5:53 PM 93.0 °F 100.1 °F 71.1 °F 49% 29.87 in 10.0 mi SE 4.6 mph - N/A   Partly Cloudy
6:53 PM 91.0 °F 98.2 °F 72.0 °F 53% 29.88 in 10.0 mi ESE 6.9 mph - N/A   Scattered Clouds
7:53 PM 81.0 °F 83.0 °F 66.0 °F 60% 29.90 in 10.0 mi Calm Calm - N/A   Scattered Clouds
8:53 PM 77.0 °F - 66.9 °F 71% 29.90 in 10.0 mi Calm Calm - N/A   Clear
9:53 PM 75.0 °F - 66.9 °F 76% 29.92 in 10.0 mi Calm Calm - N/A   Clear
10:53 PM 73.0 °F - 68.0 °F 84% 29.92 in 10.0 mi Calm Calm - N/A   Clear
11:53 PM 72.0 °F - 68.0 °F 87% 29.93 in 10.0 mi Calm Calm - N/A   Clear